Location: Unspecified
(43.4680°N, 87.1740°E)
Time: 21:01:31
(UTC+00:00)

Cosmos-2242 - Pass Details

Date: 17 April 2021
Orbit: 589 x 618 km, 82.5° (Epoch: 12 May)

Event Time Altitude Azimuth Distance (km) Brightness Sun altitude
Exits shadow 15:23:35 46° 46° (NE) 828 3.6 -23.8°
Drops below altitude 10° 15:26:52 10° 16° (NNE) 1,961 6.0 -24.2°
Sets 15:29:06 0° 13° (NNE) 2,865 6.9 -24.5°
